Weather in Arshan

Russia / Irkutsk Oblast     53°55′10″N   99°54′08″E
temp.,
°C
wind,
m/s
gust,
m/s
humid.,
%
clouds,
%
prec.,
mm/h
press.,
hPa
HPBL,
m
6 march, sat
sat623:00−7sw1186100 0.0 102129
02:00−3sw3578100 0.2 1023115
05:00−8w237673 0.0 102533
08:00−9ssw237586 0.0 102737
11:00−2wsw41268100 0.0 10251033
14:00+1w3887100 0.0 10221294
17:00+1wsw158595 0.1 1021480
20:00−6nne128484 0.1 102221
7 march, sun
sun723:00−9ssw228423 0.0 102122
02:00−8ssw227753 0.0 102024
05:00−7ssw2375100 0.0 101832
08:00−6sw1177100 0.0 101932
11:00−2sse1282100 0.0 1016131
14:00+1nw1595100 0.0 1014272
17:000ene119999 0.0 101449
20:00−3ssw1185100 0.0 101621
8 march, mon
mon823:00−4ene0085100 0.0 101821
02:00−6nw1184100 0.0 102021
05:00−9nne119786 0.2 102331
08:00−11s119793 0.5 102721
11:00−6ssw128287 0.1 1027434
14:00−4e227578 0.1 1026687
17:00−4ese468589 0.0 1023584
20:00−9ese359593 0.0 102487
9 march, tue
tue923:00−10se2294100 0.0 102247
02:00−11sse128977 0.0 101822
05:00−10ssw128223 0.0 101724
08:00−6ssw117861 0.0 101821
11:000e0182100 0.0 101859
14:00+2sw279786 0.0 1018725
17:00+2wnw268657 0.2 1020462
20:00−3nw357568 0.3 102499
10 march, wed
wed1023:00−9s018538 0.0 102821
02:00−9se229323 0.0 102832
05:00−10se129497 0.1 102823
08:00−12s129070 0.1 102623
11:00−5ese227932 0.0 1021199
14:00−1ene228824 0.0 1017255
17:00−1ne129427 0.0 1017220
20:00−4s119652 0.0 101921